Time,TemperatureF,DewpointF,PressureIn,WindDirection,WindDirectionDegrees,WindSpeedMPH,WindSpeedGustMPH,Humidity,HourlyPrecipIn,Conditions,Clouds,dailyrainin,SoftwareType,DateUTC
2013-08-05 00:08:00,69.9,55.8,30.05,South,169,1.0,1.0,61,0.00,,FEW250,0.00,VWS V14.01,2013-08-05 04:08:00,
2013-08-05 00:09:00,69.8,55.2,30.05,South,171,0.0,1.0,60,0.00,,FEW250,0.00,VWS V14.01,2013-08-05 04:09:00,
2013-08-05 00:14:00,69.8,54.7,30.05,South,172,1.0,2.0,59,0.00,,FEW250,0.00,VWS V14.01,2013-08-05 04:14:00,
2013-08-05 00:24:00,70.1,54.5,30.05,West,260,0.0,4.0,58,0.00,,FEW250,0.00,VWS V14.01,2013-08-05 04:24:00,
2013-08-05 00:29:00,70.5,54.3,30.05,West,263,0.0,3.0,57,0.00,,FEW250,0.00,VWS V14.01,2013-08-05 04:29:00,
2013-08-05 00:34:00,70.4,53.7,30.05,WSW,254,1.0,2.0,55,0.00,,FEW250,0.00,VWS V14.01,2013-08-05 04:34:00,
2013-08-05 00:39:00,70.3,54.1,30.04,SW,218,2.0,3.0,57,0.00,,FEW250,0.00,VWS V14.01,2013-08-05 04:39:00,
2013-08-05 00:44:00,70.4,53.7,30.05,West,269,2.0,4.0,55,0.00,,FEW250,0.00,VWS V14.01,2013-08-05 04:44:00,
2013-08-05 00:49:00,70.2,54.0,30.04,West,273,2.0,4.0,57,0.00,,FEW250,0.00,VWS V14.01,2013-08-05 04:49:00,
2013-08-05 00:54:00,70.0,53.9,30.04,SSW,202,1.0,4.0,57,0.00,,FEW250,0.00,VWS V14.01,2013-08-05 04:54:00,
2013-08-05 01:08:00,69.8,54.2,30.04,WNW,289,2.0,4.0,58,0.00,,FEW250,0.00,VWS V14.01,2013-08-05 05:08:00,
2013-08-05 01:14:00,69.6,54.5,30.04,South,191,0.0,4.0,59,0.00,,FEW250,0.00,VWS V14.01,2013-08-05 05:14:00,
2013-08-05 01:24:00,69.4,54.3,30.04,West,275,0.0,4.0,59,0.00,,FEW250,0.00,VWS V14.01,2013-08-05 05:24:00,
2013-08-05 01:29:00,69.4,54.3,30.04,WNW,283,2.0,4.0,59,0.00,,FEW250,0.00,VWS V14.01,2013-08-05 05:29:00,
2013-08-05 01:34:00,69.3,54.2,30.04,WSW,237,0.0,3.0,59,0.00,,FEW250,0.00,VWS V14.01,2013-08-05 05:34:00,
2013-08-05 01:39:00,69.1,54.0,30.04,SSW,205,0.0,1.0,59,0.00,,FEW250,0.00,VWS V14.01,2013-08-05 05:39:00,
2013-08-05 01:49:00,68.8,54.2,30.04,SSW,208,1.0,3.0,60,0.00,,FEW250,0.00,VWS V14.01,2013-08-05 05:49:00,
2013-08-05 01:54:00,68.8,54.2,30.04,SSW,199,0.0,3.0,60,0.00,,FEW250,0.00,VWS V14.01,2013-08-05 05:54:00,
2013-08-05 01:59:00,68.6,54.0,30.04,SSW,195,1.0,2.0,60,0.00,,BKN250,0.00,VWS V14.01,2013-08-05 05:59:00,
2013-08-05 02:08:00,68.5,54.0,30.04,SSW,198,0.0,2.0,60,0.00,,BKN250,0.00,VWS V14.01,2013-08-05 06:08:00,
2013-08-05 02:14:00,68.3,53.8,30.04,SSW,204,0.0,3.0,60,0.00,,BKN250,0.00,VWS V14.01,2013-08-05 06:14:00,
2013-08-05 02:19:00,68.2,54.2,30.05,SSW,198,0.0,2.0,61,0.00,,BKN250,0.00,VWS V14.01,2013-08-05 06:19:00,
2013-08-05 02:29:00,67.7,54.2,30.05,SSW,199,0.0,2.0,62,0.00,,BKN250,0.00,VWS V14.01,2013-08-05 06:29:00,
2013-08-05 02:34:00,67.4,53.9,30.05,SSW,199,0.0,1.0,62,0.00,,BKN250,0.00,VWS V14.01,2013-08-05 06:34:00,
2013-08-05 02:39:00,67.2,54.6,30.05,SSW,199,0.0,0.0,64,0.00,,BKN250,0.00,VWS V14.01,2013-08-05 06:39:00,
2013-08-05 02:49:00,67.1,54.0,30.05,South,186,0.0,2.0,63,0.00,,BKN250,0.00,VWS V14.01,2013-08-05 06:49:00,
2013-08-05 02:54:00,67.0,54.4,30.05,South,186,0.0,0.0,64,0.00,,BKN250,0.00,VWS V14.01,2013-08-05 06:54:00,
2013-08-05 02:59:00,67.0,54.0,30.05,South,186,0.0,1.0,63,0.00,,BKN250,0.00,VWS V14.01,2013-08-05 06:59:00,
2013-08-05 03:08:00,67.1,53.6,30.05,South,186,0.0,0.0,62,0.00,,BKN250,0.00,VWS V14.01,2013-08-05 07:08:00,
2013-08-05 03:14:00,66.9,54.3,30.06,South,187,0.0,2.0,64,0.00,,BKN250,0.00,VWS V14.01,2013-08-05 07:14:00,
2013-08-05 03:19:00,66.9,54.8,30.06,South,187,0.0,2.0,65,0.00,,BKN250,0.00,VWS V14.01,2013-08-05 07:19:00,
2013-08-05 03:29:00,66.9,53.9,30.06,West,266,2.0,4.0,63,0.00,,BKN250,0.00,VWS V14.01,2013-08-05 07:29:00,
2013-08-05 03:34:00,66.9,53.9,30.06,West,266,1.0,3.0,63,0.00,,BKN250,0.00,VWS V14.01,2013-08-05 07:34:00,
2013-08-05 03:39:00,66.9,53.9,30.06,West,267,1.0,3.0,63,0.00,,BKN250,0.00,VWS V14.01,2013-08-05 07:39:00,
2013-08-05 03:44:00,66.9,54.3,30.06,West,270,0.0,4.0,64,0.00,,BKN250,0.00,VWS V14.01,2013-08-05 07:44:00,
2013-08-05 03:54:00,66.6,54.5,30.06,ENE,77,0.0,1.0,65,0.00,,BKN250,0.00,VWS V14.01,2013-08-05 07:54:00,
2013-08-05 03:59:00,66.4,54.7,30.06,ENE,77,0.0,2.0,66,0.00,,BKN250,0.00,VWS V14.01,2013-08-05 07:59:00,
2013-08-05 04:08:00,66.3,54.7,30.06,ENE,75,0.0,2.0,66,0.00,,BKN250,0.00,VWS V14.01,2013-08-05 08:08:00,
2013-08-05 04:14:00,66.1,54.9,30.06,NNW,339,2.0,2.0,67,0.00,,BKN250,0.00,VWS V14.01,2013-08-05 08:14:00,
2013-08-05 04:19:00,66.1,54.5,30.06,NNW,330,2.0,3.0,66,0.00,,BKN250,0.00,VWS V14.01,2013-08-05 08:19:00,
2013-08-05 04:24:00,66.1,54.5,30.06,WNW,302,2.0,3.0,66,0.00,,BKN250,0.00,VWS V14.01,2013-08-05 08:24:00,
2013-08-05 04:29:00,66.1,54.0,30.06,WNW,298,1.0,4.0,65,0.00,,BKN250,0.00,VWS V14.01,2013-08-05 08:29:00,
2013-08-05 04:34:00,66.1,54.5,30.06,WNW,292,0.0,3.0,66,0.00,,BKN250,0.00,VWS V14.01,2013-08-05 08:34:00,
2013-08-05 04:39:00,66.0,54.4,30.06,WNW,292,1.0,2.0,66,0.00,,BKN250,0.00,VWS V14.01,2013-08-05 08:39:00,
2013-08-05 04:44:00,65.9,53.8,30.06,WNW,291,0.0,2.0,65,0.00,,BKN250,0.00,VWS V14.01,2013-08-05 08:44:00,
2013-08-05 04:49:00,65.7,54.1,30.07,WNW,291,0.0,3.0,66,0.00,,BKN250,0.00,VWS V14.01,2013-08-05 08:49:00,
2013-08-05 04:54:00,65.5,53.9,30.07,WNW,291,0.0,0.0,66,0.00,,BKN250,0.00,VWS V14.01,2013-08-05 08:54:00,
2013-08-05 04:59:00,65.4,54.2,30.07,West,262,0.0,1.0,67,0.00,,BKN250,0.00,VWS V14.01,2013-08-05 08:59:00,
2013-08-05 05:19:00,65.3,53.7,30.08,WSW,243,0.0,3.0,66,0.00,,BKN250,0.00,VWS V14.01,2013-08-05 09:19:00,
2013-08-05 05:29:00,65.5,53.9,30.08,West,273,0.0,4.0,66,0.00,,BKN250,0.00,VWS V14.01,2013-08-05 09:29:00,
2013-08-05 05:34:00,65.5,53.9,30.08,West,273,0.0,4.0,66,0.00,,BKN250,0.00,VWS V14.01,2013-08-05 09:34:00,
2013-08-05 05:49:00,65.6,54.0,30.08,West,280,0.0,4.0,66,0.00,,BKN250,0.00,VWS V14.01,2013-08-05 09:49:00,
2013-08-05 05:54:00,65.7,53.6,30.08,NW,316,2.0,6.0,65,0.00,,BKN250,0.00,VWS V14.01,2013-08-05 09:54:00,
2013-08-05 05:59:00,65.7,53.6,30.08,NW,316,0.0,2.0,65,0.00,,SCT250,0.00,VWS V14.01,2013-08-05 09:59:00,
2013-08-05 06:08:00,65.6,54.4,30.08,NW,316,0.0,1.0,67,0.00,,SCT250,0.00,VWS V14.01,2013-08-05 10:08:00,
2013-08-05 06:19:00,65.5,54.8,30.09,NW,312,4.0,6.0,68,0.00,,SCT250,0.00,VWS V14.01,2013-08-05 10:19:00,
2013-08-05 06:49:00,65.1,54.4,30.09,NW,306,2.0,6.0,68,0.00,,SCT250,0.00,VWS V14.01,2013-08-05 10:49:00,
2013-08-05 06:54:00,65.1,54.4,30.09,NW,310,2.0,5.0,68,0.00,,SCT250,0.00,VWS V14.01,2013-08-05 10:54:00,
2013-08-05 07:08:00,65.3,54.6,30.09,NW,309,3.0,5.0,68,0.00,,BKN250,0.00,VWS V14.01,2013-08-05 11:08:00,
2013-08-05 07:14:00,65.6,54.8,30.10,WNW,301,1.0,5.0,68,0.00,,BKN250,0.00,VWS V14.01,2013-08-05 11:14:00,
2013-08-05 07:24:00,66.0,54.8,30.10,NW,311,3.0,4.0,67,0.00,,BKN250,0.00,VWS V14.01,2013-08-05 11:24:00,
2013-08-05 07:34:00,66.1,54.9,30.11,NW,304,2.0,4.0,67,0.00,,BKN250,0.00,VWS V14.01,2013-08-05 11:34:00,
2013-08-05 07:39:00,66.2,55.0,30.11,NW,309,4.0,6.0,67,0.00,,BKN250,0.00,VWS V14.01,2013-08-05 11:39:00,
2013-08-05 07:44:00,66.4,54.7,30.11,North,356,2.0,6.0,66,0.00,,BKN250,0.00,VWS V14.01,2013-08-05 11:44:00,
2013-08-05 07:49:00,66.6,54.9,30.11,NW,304,1.0,5.0,66,0.00,,BKN250,0.00,VWS V14.01,2013-08-05 11:49:00,
2013-08-05 07:54:00,66.8,55.1,30.11,North,351,2.0,5.0,66,0.00,,BKN250,0.00,VWS V14.01,2013-08-05 11:54:00,
2013-08-05 07:59:00,67.0,55.8,30.11,North,357,0.0,5.0,67,0.00,,SCT250,0.00,VWS V14.01,2013-08-05 11:59:00,
2013-08-05 08:08:00,67.1,55.8,30.11,North,356,2.0,4.0,67,0.00,,SCT250,0.00,VWS V14.01,2013-08-05 12:08:00,
2013-08-05 08:14:00,67.7,55.5,30.11,NW,308,4.0,5.0,65,0.00,,SCT250,0.00,VWS V14.01,2013-08-05 12:14:00,
2013-08-05 08:19:00,67.6,55.4,30.11,NW,324,3.0,5.0,65,0.00,,SCT250,0.00,VWS V14.01,2013-08-05 12:19:00,
2013-08-05 08:24:00,67.9,56.2,30.11,ENE,77,3.0,5.0,66,0.00,,SCT250,0.00,VWS V14.01,2013-08-05 12:24:00,
2013-08-05 08:34:00,68.3,56.1,30.11,NW,317,0.0,4.0,65,0.00,,SCT250,0.00,VWS V14.01,2013-08-05 12:34:00,
2013-08-05 08:39:00,68.3,56.5,30.11,NNE,25,4.0,4.0,66,0.00,,SCT250,0.00,VWS V14.01,2013-08-05 12:39:00,
2013-08-05 08:44:00,68.6,56.8,30.11,ENE,64,0.0,4.0,66,0.00,,SCT250,0.00,VWS V14.01,2013-08-05 12:44:00,
2013-08-05 08:49:00,68.6,57.3,30.11,East,81,1.0,4.0,67,0.00,,SCT250,0.00,VWS V14.01,2013-08-05 12:49:00,
2013-08-05 09:09:00,69.7,57.4,30.11,ENE,64,2.0,6.0,65,0.00,,SCT250,0.00,VWS V14.01,2013-08-05 13:09:00,
2013-08-05 09:14:00,69.8,57.1,30.12,NE,48,1.0,7.0,64,0.00,,SCT250,0.00,VWS V14.01,2013-08-05 13:14:00,
2013-08-05 09:19:00,70.0,57.3,30.12,NE,51,4.0,7.0,64,0.00,,SCT250,0.00,VWS V14.01,2013-08-05 13:19:00,
2013-08-05 09:29:00,70.2,57.5,30.12,East,83,0.0,4.0,64,0.00,,SCT250,0.00,VWS V14.01,2013-08-05 13:29:00,
2013-08-05 09:34:00,70.5,57.3,30.12,NNE,13,1.0,4.0,63,0.00,,SCT250,0.00,VWS V14.01,2013-08-05 13:34:00,
2013-08-05 09:39:00,70.9,57.7,30.12,NNE,23,4.0,6.0,63,0.00,,SCT250,0.00,VWS V14.01,2013-08-05 13:39:00,
2013-08-05 09:44:00,70.9,57.2,30.12,NNE,33,2.0,6.0,62,0.00,,SCT250,0.00,VWS V14.01,2013-08-05 13:44:00,
2013-08-05 09:54:00,70.9,56.7,30.12,East,86,2.0,3.0,61,0.00,,SCT250,0.00,VWS V14.01,2013-08-05 13:54:00,
2013-08-05 09:59:00,71.1,56.4,30.12,ENE,71,0.0,5.0,60,0.00,,FEW150,0.00,VWS V14.01,2013-08-05 13:59:00,
2013-08-05 10:08:00,71.1,56.9,30.11,ENE,71,0.0,3.0,61,0.00,,FEW150,0.00,VWS V14.01,2013-08-05 14:08:00,
2013-08-05 10:19:00,71.5,56.3,30.11,East,100,1.0,6.0,59,0.00,,FEW150,0.00,VWS V14.01,2013-08-05 14:19:00,
2013-08-05 10:29:00,72.0,55.7,30.11,East,95,0.0,3.0,57,0.00,,FEW150,0.00,VWS V14.01,2013-08-05 14:29:00,
2013-08-05 10:39:00,73.0,56.1,30.11,ESE,107,0.0,3.0,55,0.00,,FEW150,0.00,VWS V14.01,2013-08-05 14:39:00,
2013-08-05 10:49:00,73.0,55.6,30.11,East,90,2.0,5.0,54,0.00,,FEW150,0.00,VWS V14.01,2013-08-05 14:49:00,
2013-08-05 10:54:00,73.1,55.2,30.11,ESE,110,1.0,3.0,53,0.00,,FEW150,0.00,VWS V14.01,2013-08-05 14:54:00,
2013-08-05 10:59:00,73.4,56.0,30.11,ESE,105,1.0,4.0,54,0.00,,FEW160,0.00,VWS V14.01,2013-08-05 14:59:00,
2013-08-05 11:07:00,73.6,56.7,30.11,ENE,65,2.0,7.0,55,0.00,,FEW160,0.00,VWS V14.01,2013-08-05 15:07:00,
2013-08-05 11:19:00,75.1,57.5,30.11,East,95,1.0,6.0,54,0.00,,FEW160,0.00,VWS V14.01,2013-08-05 15:19:00,
2013-08-05 11:24:00,75.8,58.2,30.11,ESE,119,2.0,6.0,54,0.00,,FEW160,0.00,VWS V14.01,2013-08-05 15:24:00,
2013-08-05 11:29:00,74.9,56.8,30.12,SSE,147,4.0,7.0,53,0.00,,FEW160,0.00,VWS V14.01,2013-08-05 15:29:00,
2013-08-05 11:34:00,74.4,56.4,30.12,SE,138,1.0,7.0,53,0.00,,FEW160,0.00,VWS V14.01,2013-08-05 15:34:00,
2013-08-05 11:39:00,75.5,56.8,30.12,East,100,2.0,6.0,52,0.00,,FEW160,0.00,VWS V14.01,2013-08-05 15:39:00,
2013-08-05 11:44:00,75.7,56.4,30.11,SE,125,3.0,6.0,51,0.00,,FEW160,0.00,VWS V14.01,2013-08-05 15:44:00,
2013-08-05 11:54:00,74.8,55.6,30.11,SE,129,5.0,6.0,51,0.00,,FEW160,0.00,VWS V14.01,2013-08-05 15:54:00,
2013-08-05 11:59:00,74.2,55.1,30.11,SE,124,3.0,6.0,51,0.00,,SCT250,0.00,VWS V14.01,2013-08-05 15:59:00,
2013-08-05 12:08:00,74.0,54.3,30.11,SE,131,3.0,6.0,50,0.00,,SCT250,0.00,VWS V14.01,2013-08-05 16:08:00,
2013-08-05 12:19:00,74.9,55.1,30.10,ENE,77,3.0,5.0,50,0.00,,SCT250,0.00,VWS V14.01,2013-08-05 16:19:00,
2013-08-05 12:29:00,75.3,55.5,30.10,SSE,156,8.0,8.0,50,0.00,,SCT250,0.00,VWS V14.01,2013-08-05 16:29:00,
2013-08-05 12:34:00,75.1,55.9,30.10,East,82,2.0,8.0,51,0.00,,SCT250,0.00,VWS V14.01,2013-08-05 16:34:00,
2013-08-05 12:44:00,75.8,56.0,30.09,SE,134,2.0,5.0,50,0.00,,SCT250,0.00,VWS V14.01,2013-08-05 16:44:00,
2013-08-05 12:49:00,76.2,55.1,30.09,SE,135,1.0,4.0,48,0.00,,SCT250,0.00,VWS V14.01,2013-08-05 16:49:00,
2013-08-05 12:54:00,76.5,55.4,30.09,ENE,74,3.0,6.0,48,0.00,,SCT250,0.00,VWS V14.01,2013-08-05 16:54:00,
2013-08-05 12:59:00,76.3,54.0,30.08,ENE,59,3.0,7.0,46,0.00,,BKN250,0.00,VWS V14.01,2013-08-05 16:59:00,
2013-08-05 13:07:00,76.1,54.4,30.08,East,95,1.0,5.0,47,0.00,,BKN250,0.00,VWS V14.01,2013-08-05 17:07:00,
2013-08-05 13:19:00,77.0,55.2,30.08,East,100,2.0,10.0,47,0.00,,BKN250,0.00,VWS V14.01,2013-08-05 17:19:00,
2013-08-05 13:24:00,76.8,55.1,30.08,NE,54,2.0,8.0,47,0.00,,BKN250,0.00,VWS V14.01,2013-08-05 17:24:00,
2013-08-05 13:29:00,77.6,55.8,30.08,East,100,4.0,7.0,47,0.00,,BKN250,0.00,VWS V14.01,2013-08-05 17:29:00,
2013-08-05 13:39:00,77.3,54.9,30.07,ESE,116,6.0,10.0,46,0.00,,BKN250,0.00,VWS V14.01,2013-08-05 17:39:00,
2013-08-05 13:59:00,77.5,55.1,30.07,SSE,156,7.0,11.0,46,0.00,,BKN250,0.00,VWS V14.01,2013-08-05 17:59:00,
2013-08-05 14:08:00,77.1,55.3,30.06,East,100,4.0,10.0,47,0.00,,BKN250,0.00,VWS V14.01,2013-08-05 18:08:00,
2013-08-05 14:14:00,77.6,55.2,30.06,SSE,158,4.0,10.0,46,0.00,,BKN250,0.00,VWS V14.01,2013-08-05 18:14:00,
2013-08-05 14:19:00,76.9,53.9,30.06,East,95,2.0,6.0,45,0.00,,BKN250,0.00,VWS V14.01,2013-08-05 18:19:00,
2013-08-05 14:34:00,77.8,57.2,30.05,East,95,2.0,10.0,49,0.00,,BKN250,0.00,VWS V14.01,2013-08-05 18:34:00,
2013-08-05 14:39:00,78.0,54.9,30.05,East,81,2.0,9.0,45,0.00,,BKN250,0.00,VWS V14.01,2013-08-05 18:39:00,
2013-08-05 14:44:00,78.2,55.7,30.05,ESE,119,1.0,9.0,46,0.00,,BKN250,0.00,VWS V14.01,2013-08-05 18:44:00,
2013-08-05 14:49:00,77.5,55.1,30.05,East,95,4.0,9.0,46,0.00,,BKN250,0.00,VWS V14.01,2013-08-05 18:49:00,
2013-08-05 14:59:00,78.1,56.2,30.04,ENE,62,1.0,10.0,47,0.00,,BKN250,0.00,VWS V14.01,2013-08-05 18:59:00,
2013-08-05 15:09:00,77.9,54.8,30.04,SSE,154,5.0,8.0,45,0.00,,BKN250,0.00,VWS V14.01,2013-08-05 19:09:00,
2013-08-05 15:24:00,76.7,54.3,30.04,East,81,4.0,7.0,46,0.00,,BKN250,0.00,VWS V14.01,2013-08-05 19:24:00,
2013-08-05 15:29:00,76.8,54.4,30.03,East,90,2.0,8.0,46,0.00,,BKN250,0.00,VWS V14.01,2013-08-05 19:29:00,
2013-08-05 15:34:00,77.9,54.8,30.03,East,90,0.0,7.0,45,0.00,,BKN250,0.00,VWS V14.01,2013-08-05 19:34:00,
2013-08-05 15:49:00,77.6,54.5,30.03,SSE,152,5.0,9.0,45,0.00,,BKN250,0.00,VWS V14.01,2013-08-05 19:49:00,
2013-08-05 15:54:00,77.3,54.2,30.03,ESE,119,2.0,10.0,45,0.00,,BKN250,0.00,VWS V14.01,2013-08-05 19:54:00,
2013-08-05 15:59:00,77.4,53.7,30.03,SE,139,3.0,8.0,44,0.00,,BKN250,0.00,VWS V14.01,2013-08-05 19:59:00,
2013-08-05 16:08:00,77.3,54.2,30.03,South,178,3.0,8.0,45,0.00,,BKN250,0.00,VWS V14.01,2013-08-05 20:08:00,
2013-08-05 16:14:00,79.0,54.5,30.03,SE,131,4.0,6.0,43,0.00,,BKN250,0.00,VWS V14.01,2013-08-05 20:14:00,
2013-08-05 16:19:00,79.6,53.6,30.03,SSE,160,2.0,5.0,41,0.00,,BKN250,0.00,VWS V14.01,2013-08-05 20:19:00,
2013-08-05 16:29:00,80.1,54.8,30.03,WSW,250,1.0,7.0,42,0.00,,BKN250,0.00,VWS V14.01,2013-08-05 20:29:00,
2013-08-05 16:34:00,79.0,53.1,30.03,SSW,200,4.0,9.0,41,0.00,,BKN250,0.00,VWS V14.01,2013-08-05 20:34:00,
2013-08-05 16:44:00,77.9,53.5,30.03,SSE,161,2.0,8.0,43,0.00,,BKN250,0.00,VWS V14.01,2013-08-05 20:44:00,
2013-08-05 16:54:00,78.2,52.4,30.02,SSW,201,3.0,5.0,41,0.00,,BKN250,0.00,VWS V14.01,2013-08-05 20:54:00,
2013-08-05 17:08:00,78.4,53.9,30.02,SSE,161,7.0,7.0,43,0.00,,BKN250,0.00,VWS V14.01,2013-08-05 21:08:00,
2013-08-05 17:14:00,79.3,54.7,30.02,WSW,250,5.0,8.0,43,0.00,,BKN250,0.00,VWS V14.01,2013-08-05 21:14:00,
2013-08-05 17:19:00,79.7,53.7,30.02,South,189,5.0,9.0,41,0.00,,BKN250,0.00,VWS V14.01,2013-08-05 21:19:00,
2013-08-05 17:24:00,79.7,53.7,30.02,SW,223,5.0,9.0,41,0.00,,BKN250,0.00,VWS V14.01,2013-08-05 21:24:00,
2013-08-05 17:29:00,79.4,53.4,30.02,SW,231,4.0,7.0,41,0.00,,BKN250,0.00,VWS V14.01,2013-08-05 21:29:00,
2013-08-05 17:39:00,79.8,53.1,30.03,SW,214,3.0,9.0,40,0.00,,BKN250,0.00,VWS V14.01,2013-08-05 21:39:00,
2013-08-05 17:49:00,80.1,53.3,30.03,West,270,3.0,7.0,40,0.00,,BKN250,0.00,VWS V14.01,2013-08-05 21:49:00,
2013-08-05 17:54:00,79.6,52.2,30.03,WSW,258,2.0,9.0,39,0.00,,BKN250,0.00,VWS V14.01,2013-08-05 21:54:00,
2013-08-05 17:59:00,79.6,50.6,30.03,WNW,295,6.0,10.0,36,0.00,,BKN250,0.00,VWS V14.01,2013-08-05 21:59:00,
2013-08-05 18:14:00,78.7,51.3,30.03,West,275,1.0,6.0,39,0.00,,BKN250,0.00,VWS V14.01,2013-08-05 22:14:00,
2013-08-05 18:26:00,79.1,50.2,30.03,NW,320,4.0,6.0,36,0.00,,BKN250,0.00,VWS V14.01,2013-08-05 22:26:00,
2013-08-05 18:34:00,79.5,52.1,30.03,WSW,255,2.0,7.0,39,0.00,,BKN250,0.00,VWS V14.01,2013-08-05 22:34:00,
2013-08-05 18:39:00,79.2,51.8,30.03,West,276,0.0,8.0,39,0.00,,BKN250,0.00,VWS V14.01,2013-08-05 22:39:00,
2013-08-05 18:44:00,78.8,52.9,30.04,WSW,247,2.0,6.0,41,0.00,,BKN250,0.00,VWS V14.01,2013-08-05 22:44:00,
2013-08-05 18:54:00,78.3,53.2,30.03,South,173,0.0,4.0,42,0.00,,BKN250,0.00,VWS V14.01,2013-08-05 22:54:00,
2013-08-05 18:59:00,78.1,53.7,30.03,South,181,0.0,3.0,43,0.00,,BKN250,0.00,VWS V14.01,2013-08-05 22:59:00,
2013-08-05 19:14:00,77.7,54.0,30.04,SSW,192,2.0,3.0,44,0.00,,BKN250,0.00,VWS V14.01,2013-08-05 23:14:00,
2013-08-05 19:19:00,77.7,54.6,30.04,WSW,250,1.0,5.0,45,0.00,,BKN250,0.00,VWS V14.01,2013-08-05 23:19:00,
2013-08-05 19:24:00,77.5,54.4,30.04,SSW,198,3.0,5.0,45,0.00,,BKN250,0.00,VWS V14.01,2013-08-05 23:24:00,
2013-08-05 19:29:00,77.4,53.0,30.05,WSW,258,1.0,3.0,43,0.00,,BKN250,0.00,VWS V14.01,2013-08-05 23:29:00,
2013-08-05 19:34:00,77.4,52.3,30.05,SSW,213,0.0,4.0,42,0.00,,BKN250,0.00,VWS V14.01,2013-08-05 23:34:00,
2013-08-05 19:39:00,77.2,52.2,30.05,SSE,159,1.0,2.0,42,0.00,,BKN250,0.00,VWS V14.01,2013-08-05 23:39:00,
2013-08-05 19:44:00,77.2,53.5,30.04,SSE,164,0.0,2.0,44,0.00,,BKN250,0.00,VWS V14.01,2013-08-05 23:44:00,
2013-08-05 19:49:00,77.0,54.0,30.04,SSW,194,0.0,3.0,45,0.00,,BKN250,0.00,VWS V14.01,2013-08-05 23:49:00,
2013-08-05 19:54:00,76.9,53.9,30.05,SW,236,0.0,2.0,45,0.00,,BKN250,0.00,VWS V14.01,2013-08-05 23:54:00,
2013-08-05 20:09:00,76.6,54.3,30.05,SSE,158,1.0,2.0,46,0.00,,BKN250,0.00,VWS V14.01,2013-08-06 00:09:00,
2013-08-05 20:14:00,76.3,55.2,30.05,SSE,156,0.0,4.0,48,0.00,,BKN250,0.00,VWS V14.01,2013-08-06 00:14:00,
2013-08-05 20:19:00,76.4,54.7,30.04,WSW,239,4.0,6.0,47,0.00,,BKN250,0.00,VWS V14.01,2013-08-06 00:19:00,
2013-08-05 20:29:00,76.0,55.0,30.05,SW,235,2.0,3.0,48,0.00,,BKN250,0.00,VWS V14.01,2013-08-06 00:29:00,
2013-08-05 20:34:00,76.0,55.5,30.04,South,169,0.0,4.0,49,0.00,,BKN250,0.00,VWS V14.01,2013-08-06 00:34:00,
2013-08-05 20:39:00,75.7,55.9,30.05,West,262,3.0,5.0,50,0.00,,BKN250,0.00,VWS V14.01,2013-08-06 00:39:00,
2013-08-05 20:44:00,75.6,55.2,30.05,SSW,204,1.0,3.0,49,0.00,,BKN250,0.00,VWS V14.01,2013-08-06 00:44:00,
2013-08-05 20:49:00,75.5,55.1,30.04,South,175,1.0,3.0,49,0.00,,BKN250,0.00,VWS V14.01,2013-08-06 00:49:00,
2013-08-05 20:59:00,75.2,55.4,30.04,SSW,203,0.0,3.0,50,0.00,,BKN250,0.00,VWS V14.01,2013-08-06 00:59:00,
2013-08-05 21:09:00,75.0,55.8,30.05,South,185,0.0,1.0,51,0.00,,BKN250,0.00,VWS V14.01,2013-08-06 01:09:00,
2013-08-05 21:14:00,74.9,55.7,30.05,South,189,0.0,2.0,51,0.00,,BKN250,0.00,VWS V14.01,2013-08-06 01:14:00,
2013-08-05 21:19:00,74.7,55.5,30.05,South,169,1.0,2.0,51,0.00,,BKN250,0.00,VWS V14.01,2013-08-06 01:19:00,
2013-08-05 21:24:00,74.9,56.8,30.05,SSE,164,1.0,3.0,53,0.00,,BKN250,0.00,VWS V14.01,2013-08-06 01:24:00,
2013-08-05 21:29:00,75.1,58.1,30.05,SSE,164,0.0,2.0,55,0.00,,BKN250,0.00,VWS V14.01,2013-08-06 01:29:00,
2013-08-05 21:34:00,74.9,59.0,30.05,ESE,121,2.0,3.0,58,0.00,,BKN250,0.00,VWS V14.01,2013-08-06 01:34:00,
2013-08-05 21:39:00,74.6,59.2,30.05,ESE,111,4.0,5.0,59,0.00,,BKN250,0.00,VWS V14.01,2013-08-06 01:39:00,
2013-08-05 21:44:00,74.2,58.8,30.04,SE,132,4.0,5.0,59,0.00,,BKN250,0.00,VWS V14.01,2013-08-06 01:44:00,
2013-08-05 21:49:00,74.0,58.6,30.04,SE,131,2.0,4.0,59,0.00,,BKN250,0.00,VWS V14.01,2013-08-06 01:49:00,
2013-08-05 21:54:00,73.7,58.8,30.04,SE,131,4.0,5.0,60,0.00,,BKN250,0.00,VWS V14.01,2013-08-06 01:54:00,
2013-08-05 21:59:00,73.6,58.7,30.03,ESE,112,2.0,5.0,60,0.00,,BKN250,0.00,VWS V14.01,2013-08-06 01:59:00,
2013-08-05 22:08:00,73.5,58.7,30.03,SE,125,2.0,3.0,60,0.00,,BKN250,0.00,VWS V14.01,2013-08-06 02:08:00,
2013-08-05 22:14:00,73.3,59.4,30.03,SE,134,1.0,3.0,62,0.00,,BKN250,0.00,VWS V14.01,2013-08-06 02:14:00,
2013-08-05 22:19:00,73.0,59.6,30.03,SE,137,3.0,3.0,63,0.00,,BKN250,0.00,VWS V14.01,2013-08-06 02:19:00,
2013-08-05 22:26:00,72.9,59.1,30.03,SE,137,2.0,3.0,62,0.00,,BKN250,0.00,VWS V14.01,2013-08-06 02:26:00,
2013-08-05 22:39:00,72.5,59.6,30.04,SE,143,1.0,2.0,64,0.00,,BKN250,0.00,VWS V14.01,2013-08-06 02:39:00,
2013-08-05 22:49:00,72.4,60.0,30.04,SSE,148,0.0,4.0,65,0.00,,BKN250,0.00,VWS V14.01,2013-08-06 02:49:00,
2013-08-05 22:54:00,72.3,59.4,30.04,SSE,148,1.0,2.0,64,0.00,,BKN250,0.00,VWS V14.01,2013-08-06 02:54:00,
2013-08-05 22:59:00,72.3,59.0,30.04,SSE,148,0.0,2.0,63,0.00,,BKN250,0.00,VWS V14.01,2013-08-06 02:59:00,
2013-08-05 23:08:00,72.6,59.2,30.04,SSE,151,3.0,3.0,63,0.00,,BKN250,0.00,VWS V14.01,2013-08-06 03:08:00,
2013-08-05 23:14:00,72.4,59.5,30.04,South,173,1.0,5.0,64,0.00,,BKN250,0.00,VWS V14.01,2013-08-06 03:14:00,
2013-08-05 23:19:00,72.3,59.4,30.04,South,174,1.0,5.0,64,0.00,,BKN250,0.00,VWS V14.01,2013-08-06 03:19:00,
2013-08-05 23:24:00,72.2,59.8,30.04,SSE,151,2.0,2.0,65,0.00,,BKN250,0.00,VWS V14.01,2013-08-06 03:24:00,
2013-08-05 23:29:00,72.0,60.1,30.04,South,184,3.0,3.0,66,0.00,,BKN250,0.00,VWS V14.01,2013-08-06 03:29:00,
2013-08-05 23:39:00,71.8,60.3,30.04,SE,144,2.0,5.0,67,0.00,,BKN250,0.00,VWS V14.01,2013-08-06 03:39:00,
2013-08-05 23:44:00,71.7,60.7,30.04,SE,139,0.0,4.0,68,0.00,,BKN250,0.00,VWS V14.01,2013-08-06 03:44:00,
2013-08-05 23:54:00,71.4,60.8,30.04,South,181,2.0,6.0,69,0.00,,BKN250,0.00,VWS V14.01,2013-08-06 03:54:00,
2013-08-05 23:59:00,71.4,60.8,30.04,SSE,155,2.0,7.0,69,0.00,,OVC250,0.00,VWS V14.01,2013-08-06 03:59:00,